| time (UTC) | temp F | wind direction | speed MPH | gust MPH | rain 1hr in | rain 24hr in | rain mn in | humidity % | barometer mb |
| 20260906174105 | 81 | 131 | 4.0 | 12.0 | 0.00 | 0.00 | 0.00 | 47 | 1015.7 |
| 20260906173605 | 81 | 110 | 8.0 | 12.0 | 0.00 | 0.00 | 0.00 | 46 | 1015.7 |
| 20260906172535 | 83 | 360 | 4.0 | 12.0 | 0.00 | 0.00 | 0.00 | 42 | 1015.9 |
| 20260906172104 | 83 | 119 | 7.0 | 7.0 | 0.00 | 0.00 | 0.00 | 38 | 1015.9 |
| 20260906171604 | 83 | 192 | 4.0 | 7.0 | 0.00 | 0.00 | 0.00 | 36 | 1015.9 |
| 20260906171035 | 83 | 128 | 2.0 | 7.0 | 0.00 | 0.00 | 0.00 | 36 | 1015.5 |
| 20260906170035 | 83 | 170 | 2.0 | 7.0 | 0.00 | 0.00 | 0.00 | 35 | 1015.7 |
| 20260906165605 | 84 | 128 | 3.0 | 7.0 | 0.00 | 0.00 | 0.00 | 35 | 1015.8 |
| 20260906165034 | 84 | 169 | 0.0 | 11.0 | 0.00 | 0.00 | 0.00 | 34 | 1015.7 |
| 20260906164534 | 84 | 146 | 2.0 | 11.0 | 0.00 | 0.00 | 0.00 | 34 | 1015.6 |
| 20260906164035 | 84 | 175 | 5.0 | 9.0 | 0.00 | 0.00 | 0.00 | 34 | 1015.6 |
| 20260906163534 | 83 | 121 | 3.0 | 9.0 | 0.00 | 0.00 | 0.00 | 35 | 1015.5 |
| 20260906163035 | 83 | 360 | 3.0 | 12.0 | 0.00 | 0.00 | 0.00 | 35 | 1015.4 |
| 20260906162534 | 83 | 360 | 8.0 | 14.0 | 0.00 | 0.00 | 0.00 | 36 | 1015.3 |
| 20260906162034 | 83 | 360 | 3.0 | 14.0 | 0.00 | 0.00 | 0.00 | 36 | 1015.3 |
| 20260906161534 | 83 | 165 | 4.0 | 12.0 | 0.00 | 0.00 | 0.00 | 34 | 1015.3 |
| 20260906160604 | 83 | 133 | 5.0 | 14.0 | 0.00 | 0.00 | 0.00 | 34 | 1015.2 |
| 20260906160035 | 83 | 125 | 3.0 | 14.0 | 0.00 | 0.00 | 0.00 | 34 | 1015.3 |
| 20260906155604 | 83 | 166 | 4.0 | 10.0 | 0.00 | 0.00 | 0.00 | 34 | 1015.5 |
| 20260906155035 | 83 | 142 | 3.0 | 11.0 | 0.00 | 0.00 | 0.00 | 34 | 1015.6 |
| 20260906154535 | 83 | 196 | 4.0 | 13.0 | 0.00 | 0.00 | 0.00 | 34 | 1015.5 |
| 20260906154034 | 83 | 115 | 8.0 | 13.0 | 0.00 | 0.00 | 0.00 | 34 | 1015.4 |
| 20260906153534 | 83 | 69 | 7.0 | 11.0 | 0.00 | 0.00 | 0.00 | 34 | 1015.3 |
| 20260906153034 | 82 | 129 | 4.0 | 11.0 | 0.00 | 0.00 | 0.00 | 33 | 1015.3 |
| 20260906152605 | 82 | 111 | 5.0 | 10.0 | 0.00 | 0.00 | 0.00 | 33 | 1015.3 |
| 20260906152104 | 82 | 108 | 10.0 | 13.0 | 0.00 | 0.00 | 0.00 | 33 | 1015.2 |
| 20260906151035 | 82 | 92 | 9.0 | 15.0 | 0.00 | 0.00 | 0.00 | 33 | 1015.1 |
| 20260906150534 | 82 | 82 | 8.0 | 14.0 | 0.00 | 0.00 | 0.00 | 33 | 1015.0 |
| 20260906150104 | 82 | 90 | 9.0 | 13.0 | 0.00 | 0.00 | 0.00 | 33 | 1015.0 |
| 20260906145534 | 82 | 62 | 8.0 | 13.0 | 0.00 | 0.00 | 0.00 | 33 | 1015.0 |
| 20260906144604 | 81 | 63 | 5.0 | 11.0 | 0.00 | 0.00 | 0.00 | 32 | 1014.9 |
| 20260906144104 | 81 | 72 | 4.0 | 12.0 | 0.00 | 0.00 | 0.00 | 33 | 1014.8 |
| 20260906143104 | 80 | 68 | 7.0 | 10.0 | 0.00 | 0.00 | 0.00 | 32 | 1014.7 |
| 20260906142604 | 80 | 95 | 8.0 | 10.0 | 0.00 | 0.00 | 0.00 | 32 | 1014.6 |
| 20260906142034 | 80 | 70 | 9.0 | 10.0 | 0.00 | 0.00 | 0.00 | 31 | 1014.5 |
| 20260906141604 | 80 | 93 | 6.0 | 9.0 | 0.00 | 0.00 | 0.00 | 31 | 1014.4 |
| 20260906141035 | 80 | 74 | 7.0 | 9.0 | 0.00 | 0.00 | 0.00 | 31 | 1014.4 |
| 20260906140534 | 80 | 74 | 7.0 | 9.0 | 0.00 | 0.00 | 0.00 | 32 | 1014.3 |
| 20260906140034 | 80 | 109 | 3.0 | 10.0 | 0.00 | 0.00 | 0.00 | 31 | 1014.3 |
| 20260906135534 | 80 | 100 | 2.0 | 10.0 | 0.00 | 0.00 | 0.00 | 31 | 1014.5 |
| 20260906135035 | 79 | 117 | 4.0 | 10.0 | 0.00 | 0.00 | 0.00 | 31 | 1014.5 |
| 20260906134604 | 79 | 58 | 9.0 | 10.0 | 0.00 | 0.00 | 0.00 | 30 | 1014.3 |
| 20260906134104 | 79 | 42 | 5.0 | 8.0 | 0.00 | 0.00 | 0.00 | 30 | 1014.4 |
| 20260906133534 | 80 | 51 | 6.0 | 9.0 | 0.00 | 0.00 | 0.00 | 30 | 1014.4 |
| 20260906133035 | 80 | 85 | 7.0 | 9.0 | 0.00 | 0.00 | 0.00 | 29 | 1014.4 |
| 20260906132604 | 80 | 77 | 5.0 | 9.0 | 0.00 | 0.00 | 0.00 | 29 | 1014.3 |
| 20260906132105 | 80 | 78 | 8.0 | 9.0 | 0.00 | 0.00 | 0.00 | 29 | 1014.3 |
| 20260906131605 | 80 | 97 | 5.0 | 8.0 | 0.00 | 0.00 | 0.00 | 29 | 1014.2 |
| 20260906131104 | 80 | 86 | 7.0 | 7.0 | 0.00 | 0.00 | 0.00 | 28 | 1014.2 |
| 20260906130604 | 80 | 93 | 5.0 | 8.0 | 0.00 | 0.00 | 0.00 | 29 | 1014.2 |
| 20260906130034 | 80 | 78 | 5.0 | 8.0 | 0.00 | 0.00 | 0.00 | 28 | 1014.1 |
| 20260906124534 | 80 | 82 | 7.0 | 8.0 | 0.00 | 0.00 | 0.00 | 28 | 1014.3 |
| 20260906124034 | 80 | 74 | 3.0 | 8.0 | 0.00 | 0.00 | 0.00 | 28 | 1014.1 |
| 20260906122604 | 80 | 79 | 6.0 | 7.0 | 0.00 | 0.00 | 0.00 | 28 | 1014.3 |
| 20260906122034 | 80 | 84 | 6.0 | 7.0 | 0.00 | 0.00 | 0.00 | 28 | 1014.3 |
| 20260906121105 | 80 | 69 | 3.0 | 6.0 | 0.00 | 0.00 | 0.00 | 27 | 1014.3 |
| 20260906120035 | 80 | 82 | 3.0 | 7.0 | 0.00 | 0.00 | 0.00 | 27 | 1014.3 |
| 20260906115604 | 80 | 81 | 6.0 | 7.0 | 0.00 | 0.00 | 0.00 | 27 | 1014.3 |
| 20260906115034 | 80 | 76 | 4.0 | 4.0 | 0.00 | 0.00 | 0.00 | 26 | 1014.3 |
| 20260906114604 | 80 | 73 | 3.0 | 4.0 | 0.00 | 0.00 | 0.00 | 26 | 1014.4 |
| 20260906114034 | 80 | 73 | 3.0 | 5.0 | 0.00 | 0.00 | 0.00 | 26 | 1014.4 |
| 20260906113604 | 80 | 74 | 4.0 | 7.0 | 0.00 | 0.00 | 0.00 | 26 | 1014.3 |
| 20260906113034 | 80 | 68 | 2.0 | 7.0 | 0.00 | 0.00 | 0.00 | 26 | 1014.3 |
| 20260906112604 | 80 | 67 | 3.0 | 5.0 | 0.00 | 0.00 | 0.00 | 26 | 1014.3 |
| 20260906112104 | 80 | 74 | 2.0 | 8.0 | 0.00 | 0.00 | 0.00 | 25 | 1014.4 |
| 20260906111535 | 80 | 76 | 4.0 | 8.0 | 0.00 | 0.00 | 0.00 | 26 | 1014.4 |
| 20260906110534 | 79 | 68 | 5.0 | 7.0 | 0.00 | 0.00 | 0.00 | 26 | 1014.6 |
| 20260906110104 | 79 | 81 | 0.0 | 5.0 | 0.00 | 0.00 | 0.00 | 26 | 1014.5 |
| 20260906105534 | 79 | 81 | 3.0 | 5.0 | 0.00 | 0.00 | 0.00 | 26 | 1014.4 |
| 20260906105034 | 79 | 81 | 3.0 | 3.0 | 0.00 | 0.00 | 0.00 | 26 | 1014.3 |
| 20260906104534 | 79 | 81 | 2.0 | 5.0 | 0.00 | 0.00 | 0.00 | 26 | 1014.2 |
| 20260906104034 | 79 | 81 | 3.0 | 5.0 | 0.00 | 0.00 | 0.00 | 26 | 1014.2 |
| 20260906103534 | 80 | 81 | 3.0 | 5.0 | 0.00 | 0.00 | 0.00 | 26 | 1014.4 |
| 20260906103034 | 79 | 82 | 3.0 | 5.0 | 0.00 | 0.00 | 0.00 | 26 | 1014.3 |
| 20260906102534 | 79 | 82 | 1.0 | 5.0 | 0.00 | 0.00 | 0.00 | 25 | 1014.2 |
| 20260906102104 | 79 | 82 | 2.0 | 6.0 | 0.00 | 0.00 | 0.00 | 25 | 1014.3 |
| 20260906101534 | 79 | 82 | 3.0 | 6.0 | 0.00 | 0.00 | 0.00 | 25 | 1014.3 |
| 20260906101104 | 79 | 82 | 2.0 | 6.0 | 0.00 | 0.00 | 0.00 | 25 | 1014.3 |
| 20260906100534 | 79 | 82 | 2.0 | 6.0 | 0.00 | 0.00 | 0.00 | 25 | 1014.3 |
| 20260906100104 | 79 | 38 | 1.0 | 7.0 | 0.00 | 0.00 | 0.00 | 25 | 1014.3 |
| 20260906095534 | 79 | 37 | 2.0 | 7.0 | 0.00 | 0.00 | 0.00 | 25 | 1014.2 |
| 20260906095034 | 79 | 64 | 3.0 | 4.0 | 0.00 | 0.00 | 0.00 | 25 | 1014.2 |
| 20260906094604 | 79 | 67 | 2.0 | 5.0 | 0.00 | 0.00 | 0.00 | 25 | 1014.2 |
| 20260906094104 | 79 | 67 | 4.0 | 7.0 | 0.00 | 0.00 | 0.00 | 26 | 1014.4 |
| 20260906093604 | 79 | 70 | 2.0 | 7.0 | 0.00 | 0.00 | 0.00 | 26 | 1014.4 |
| 20260906093034 | 79 | 69 | 3.0 | 5.0 | 0.00 | 0.00 | 0.00 | 25 | 1014.2 |
| 20260906092534 | 79 | 128 | 2.0 | 3.0 | 0.00 | 0.00 | 0.00 | 25 | 1014.2 |
| 20260906092034 | 80 | 128 | 3.0 | 3.0 | 0.00 | 0.00 | 0.00 | 25 | 1014.2 |
| 20260906091534 | 80 | 128 | 2.0 | 2.0 | 0.00 | 0.00 | 0.00 | 25 | 1014.2 |
| 20260906091104 | 80 | 128 | 1.0 | 3.0 | 0.00 | 0.00 | 0.00 | 25 | 1014.2 |
| 20260906090104 | 80 | 127 | 0.0 | 3.0 | 0.00 | 0.00 | 0.00 | 25 | 1014.2 |
| 20260906085104 | 80 | 127 | 1.0 | 4.0 | 0.00 | 0.00 | 0.00 | 25 | 1014.2 |
| 20260906084604 | 80 | 122 | 4.0 | 5.0 | 0.00 | 0.00 | 0.00 | 25 | 1014.2 |
| 20260906084034 | 80 | 121 | 1.0 | 5.0 | 0.00 | 0.00 | 0.00 | 25 | 1014.3 |
| 20260906083534 | 80 | 121 | 4.0 | 5.0 | 0.00 | 0.00 | 0.00 | 25 | 1014.3 |
| 20260906083034 | 80 | 123 | 1.0 | 4.0 | 0.00 | 0.00 | 0.00 | 25 | 1014.3 |
| 20260906082604 | 79 | 123 | 2.0 | 3.0 | 0.00 | 0.00 | 0.00 | 26 | 1014.3 |
| 20260906082034 | 79 | 123 | 2.0 | 3.0 | 0.00 | 0.00 | 0.00 | 26 | 1014.3 |
| 20260906081104 | 79 | 123 | 3.0 | 4.0 | 0.00 | 0.00 | 0.00 | 26 | 1014.5 |
| 20260906080534 | 78 | 130 | 2.0 | 4.0 | 0.00 | 0.00 | 0.00 | 27 | 1014.3 |
| 20260906080034 | 78 | 136 | 2.0 | 4.0 | 0.00 | 0.00 | 0.00 | 27 | 1014.3 |
| 20260906075534 | 78 | 137 | 2.0 | 4.0 | 0.00 | 0.00 | 0.00 | 27 | 1014.1 |
| 20260906075034 | 78 | 148 | 1.0 | 4.0 | 0.00 | 0.00 | 0.00 | 28 | 1014.1 |
| 20260906074534 | 78 | 190 | 0.0 | 2.0 | 0.00 | 0.00 | 0.00 | 27 | 1014.2 |
| 20260906074034 | 78 | 190 | 0.0 | 2.0 | 0.00 | 0.00 | 0.00 | 27 | 1014.2 |
| 20260906073534 | 79 | 190 | 2.0 | 2.0 | 0.00 | 0.00 | 0.00 | 28 | 1014.2 |
| 20260906073034 | 79 | 190 | 2.0 | 3.0 | 0.00 | 0.00 | 0.00 | 27 | 1014.3 |
| 20260906072534 | 79 | 190 | 1.0 | 3.0 | 0.00 | 0.00 | 0.00 | 27 | 1014.2 |
| 20260906071534 | 79 | 190 | 0.0 | 0.0 | 0.00 | 0.00 | 0.00 | 27 | 1014.3 |
| 20260906071034 | 79 | 190 | 0.0 | 1.0 | 0.00 | 0.00 | 0.00 | 26 | 1014.3 |
| 20260906070534 | 80 | 190 | 0.0 | 2.0 | 0.00 | 0.00 | 0.00 | 26 | 1014.4 |
| 20260906070104 | 80 | 190 | 0.0 | 2.0 | 0.00 | 0.00 | 0.00 | 26 | 1014.4 |
| 20260906065604 | 80 | 190 | 0.0 | 2.0 | 0.00 | 0.00 | 0.00 | 26 | 1014.0 |
| 20260906065104 | 80 | 190 | 0.0 | 3.0 | 0.00 | 0.00 | 0.00 | 26 | 1014.1 |
| 20260906064603 | 80 | 190 | 0.0 | 3.0 | 0.00 | 0.00 | 0.00 | 25 | 1014.1 |
| 20260906064033 | 81 | 190 | 0.0 | 2.0 | 0.00 | 0.00 | 0.00 | 25 | 1014.1 |
| 20260906063533 | 81 | 190 | 0.0 | 3.0 | 0.00 | 0.00 | 0.00 | 25 | 1014.0 |
| 20260906063104 | 81 | 212 | 1.0 | 3.0 | 0.00 | 0.00 | 0.00 | 25 | 1014.0 |
| 20260906061604 | 81 | 214 | 1.0 | 2.0 | 0.00 | 0.00 | 0.00 | 25 | 1014.0 |
| 20260906060604 | 81 | 215 | 2.0 | 4.0 | 0.00 | 0.00 | 0.00 | 24 | 1013.9 |
| 20260906060104 | 82 | 244 | 0.0 | 4.0 | 0.00 | 0.00 | 0.00 | 24 | 1014.2 |
| 20260906055534 | 82 | 247 | 1.0 | 2.0 | 0.00 | 0.00 | 0.00 | 23 | 1013.9 |
| 20260906055034 | 82 | 247 | 0.0 | 0.0 | 0.00 | 0.00 | 0.00 | 23 | 1014.0 |
| 20260906054534 | 83 | 247 | 0.0 | 0.0 | 0.00 | 0.00 | 0.00 | 22 | 1014.0 |
| 20260906054104 | 83 | 247 | 0.0 | 2.0 | 0.00 | 0.00 | 0.00 | 22 | 1014.1 |
| 20260906053604 | 83 | 247 | 0.0 | 2.0 | 0.00 | 0.00 | 0.00 | 22 | 1014.1 |
| 20260906053103 | 83 | 248 | 0.0 | 2.0 | 0.00 | 0.00 | 0.00 | 21 | 1014.0 |
| 20260906052603 | 84 | 360 | 1.0 | 2.0 | 0.00 | 0.00 | 0.00 | 21 | 1014.0 |
| 20260906052103 | 84 | 360 | 2.0 | 2.0 | 0.00 | 0.00 | 0.00 | 21 | 1014.1 |
| 20260906051604 | 84 | 360 | 2.0 | 2.0 | 0.00 | 0.00 | 0.00 | 21 | 1014.0 |
| 20260906051033 | 84 | 360 | 0.0 | 2.0 | 0.00 | 0.00 | 0.00 | 21 | 1014.0 |
| 20260906050603 | 85 | 360 | 0.0 | 2.0 | 0.00 | 0.00 | 0.00 | 21 | 1014.2 |
| 20260906050103 | 85 | 360 | 1.0 | 3.0 | 0.00 | 0.00 | 0.00 | 21 | 1014.2 |
| 20260906045604 | 85 | 360 | 0.0 | 3.0 | 0.00 | 0.00 | 0.00 | 21 | 1014.0 |
| 20260906045104 | 85 | 360 | 1.0 | 3.0 | 0.00 | 0.00 | 0.00 | 21 | 1014.0 |
| 20260906044604 | 85 | 250 | 3.0 | 3.0 | 0.00 | 0.00 | 0.00 | 21 | 1013.9 |
| 20260906043104 | 86 | 248 | 2.0 | 5.0 | 0.00 | 0.00 | 0.00 | 20 | 1014.0 |
| 20260906042533 | 86 | 249 | 5.0 | 5.0 | 0.00 | 0.00 | 0.00 | 20 | 1014.2 |
| 20260906042104 | 86 | 251 | 5.0 | 6.0 | 0.00 | 0.00 | 0.00 | 20 | 1014.2 |
| 20260906041534 | 86 | 254 | 3.0 | 6.0 | 0.00 | 0.00 | 0.00 | 20 | 1014.2 |
| 20260906040604 | 87 | 188 | 2.0 | 3.0 | 0.00 | 0.00 | 0.00 | 19 | 1014.2 |
| 20260906040103 | 87 | 187 | 0.0 | 3.0 | 0.00 | 0.00 | 0.00 | 19 | 1014.2 |
| 20260906035603 | 87 | 186 | 1.0 | 4.0 | 0.00 | 0.00 | 0.00 | 19 | 1013.8 |
| 20260906035103 | 87 | 186 | 1.0 | 4.0 | 0.00 | 0.00 | 0.00 | 19 | 1013.7 |
| 20260906034603 | 87 | 360 | 3.0 | 3.0 | 0.00 | 0.00 | 0.00 | 19 | 1013.5 |
| 20260906033604 | 88 | 360 | 3.0 | 4.0 | 0.00 | 0.00 | 0.00 | 19 | 1013.7 |
| 20260906033103 | 88 | 360 | 2.0 | 4.0 | 0.00 | 0.00 | 0.00 | 18 | 1013.7 |
| 20260906032603 | 88 | 360 | 2.0 | 5.0 | 0.00 | 0.00 | 0.00 | 18 | 1013.6 |
| 20260906031603 | 88 | 360 | 5.0 | 5.0 | 0.00 | 0.00 | 0.00 | 18 | 1013.5 |
| 20260906031104 | 89 | 360 | 1.0 | 7.0 | 0.00 | 0.00 | 0.00 | 18 | 1013.4 |
| 20260906030603 | 89 | 360 | 5.0 | 9.0 | 0.00 | 0.00 | 0.00 | 18 | 1013.3 |
| 20260906025603 | 89 | 360 | 4.0 | 8.0 | 0.00 | 0.00 | 0.00 | 17 | 1013.1 |
| 20260906025104 | 89 | 360 | 4.0 | 8.0 | 0.00 | 0.00 | 0.00 | 17 | 1013.1 |
| 20260906023604 | 90 | 360 | 2.0 | 10.0 | 0.00 | 0.00 | 0.00 | 17 | 1012.9 |
| 20260906023104 | 90 | 360 | 9.0 | 10.0 | 0.00 | 0.00 | 0.00 | 17 | 1012.7 |
| 20260906022604 | 90 | 360 | 2.0 | 9.0 | 0.00 | 0.00 | 0.00 | 17 | 1012.9 |
| 20260906022103 | 90 | 360 | 3.0 | 13.0 | 0.00 | 0.00 | 0.00 | 17 | 1012.9 |
| 20260906021603 | 90 | 360 | 9.0 | 13.0 | 0.00 | 0.00 | 0.00 | 16 | 1012.7 |
| 20260906021103 | 91 | 360 | 4.0 | 11.0 | 0.00 | 0.00 | 0.00 | 16 | 1012.9 |
| 20260906020604 | 91 | 360 | 4.0 | 10.0 | 0.00 | 0.00 | 0.00 | 16 | 1012.9 |
| 20260906015603 | 91 | 360 | 8.0 | 11.0 | 0.00 | 0.00 | 0.00 | 16 | 1012.7 |
| 20260906015104 | 91 | 360 | 2.0 | 13.0 | 0.00 | 0.00 | 0.00 | 16 | 1012.7 |
| 20260906014603 | 92 | 360 | 4.0 | 13.0 | 0.00 | 0.00 | 0.00 | 16 | 1012.8 |
| 20260906014103 | 92 | 360 | 8.0 | 15.0 | 0.00 | 0.00 | 0.00 | 16 | 1012.6 |
| 20260906013603 | 92 | 360 | 4.0 | 15.0 | 0.00 | 0.00 | 0.00 | 15 | 1012.7 |
| 20260906013103 | 92 | 190 | 6.0 | 13.0 | 0.00 | 0.00 | 0.00 | 15 | 1012.7 |
| 20260906012603 | 92 | 196 | 7.0 | 14.0 | 0.00 | 0.00 | 0.00 | 15 | 1012.7 |
| 20260906012104 | 92 | 159 | 3.0 | 14.0 | 0.00 | 0.00 | 0.00 | 15 | 1012.7 |
| 20260906011603 | 93 | 183 | 8.0 | 14.0 | 0.00 | 0.00 | 0.00 | 15 | 1012.8 |
| 20260906011103 | 93 | 213 | 4.0 | 16.0 | 0.00 | 0.00 | 0.00 | 14 | 1012.7 |
| 20260906010534 | 93 | 185 | 14.0 | 16.0 | 0.00 | 0.00 | 0.00 | 14 | 1012.7 |
| 20260906010104 | 93 | 183 | 13.0 | 16.0 | 0.00 | 0.00 | 0.00 | 13 | 1012.7 |
| 20260906004604 | 94 | 133 | 7.0 | 13.0 | 0.00 | 0.00 | 0.00 | 13 | 1012.4 |
| 20260906004103 | 94 | 163 | 5.0 | 22.0 | 0.00 | 0.00 | 0.00 | 12 | 1012.4 |
| 20260906003603 | 94 | 181 | 6.0 | 22.0 | 0.00 | 0.00 | 0.00 | 12 | 1012.5 |
| 20260906003104 | 95 | 170 | 11.0 | 17.0 | 0.00 | 0.00 | 0.00 | 12 | 1012.6 |
| 20260906002603 | 95 | 155 | 5.0 | 18.0 | 0.00 | 0.00 | 0.00 | 12 | 1012.4 |
| 20260906001603 | 95 | 186 | 7.0 | 12.0 | 0.00 | 0.00 | 0.00 | 12 | 1012.4 |
| 20260906001103 | 95 | 159 | 6.0 | 17.0 | 0.00 | 0.00 | 0.00 | 11 | 1012.6 |
| 20260906000604 | 95 | 182 | 7.0 | 17.0 | 0.00 | 0.00 | 0.00 | 11 | 1012.7 |
| 20260905235103 | 95 | 194 | 5.0 | 19.0 | 0.00 | 0.00 | 0.00 | 10 | 1012.7 |
| 20260905234603 | 95 | 193 | 13.0 | 19.0 | 0.00 | 0.00 | 0.00 | 10 | 1012.8 |
| 20260905234103 | 96 | 186 | 9.0 | 16.0 | 0.00 | 0.00 | 0.00 | 10 | 1012.8 |
| 20260905232533 | 96 | 131 | 5.0 | 21.0 | 0.00 | 0.00 | 0.00 | 9 | 1012.7 |
| 20260905232103 | 96 | 190 | 8.0 | 21.0 | 0.00 | 0.00 | 0.00 | 9 | 1012.7 |
| 20260905231603 | 95 | 163 | 11.0 | 21.0 | 0.00 | 0.00 | 0.00 | 9 | 1012.8 |
| 20260905224533 | 96 | 159 | 3.0 | 18.0 | 0.00 | 0.00 | 0.00 | 9 | 1013.1 |
| 20260905224103 | 96 | 174 | 8.0 | 17.0 | 0.00 | 0.00 | 0.00 | 9 | 1013.1 |
| 20260905223033 | 96 | 188 | 11.0 | 22.0 | 0.00 | 0.00 | 0.00 | 9 | 1013.5 |
| 20260905222533 | 96 | 170 | 8.0 | 20.0 | 0.00 | 0.00 | 0.00 | 8 | 1013.3 |
| 20260905221603 | 96 | 182 | 13.0 | 20.0 | 0.00 | 0.00 | 0.00 | 7 | 1013.6 |
| 20260905220533 | 97 | 195 | 11.0 | 17.0 | 0.00 | 0.00 | 0.00 | 6 | 1013.6 |
| 20260905220103 | 97 | 167 | 13.0 | 18.0 | 0.00 | 0.00 | 0.00 | 6 | 1013.7 |
| 20260905215603 | 97 | 175 | 6.0 | 18.0 | 0.00 | 0.00 | 0.00 | 6 | 1013.8 |
| 20260905214103 | 97 | 199 | 7.0 | 15.0 | 0.00 | 0.00 | 0.00 | 6 | 1013.9 |
| 20260905213603 | 97 | 172 | 7.0 | 15.0 | 0.00 | 0.00 | 0.00 | 6 | 1014.0 |
| 20260905212603 | 97 | 196 | 4.0 | 16.0 | 0.00 | 0.00 | 0.00 | 6 | 1014.0 |
| 20260905212033 | 97 | 229 | 9.0 | 12.0 | 0.00 | 0.00 | 0.00 | 6 | 1014.1 |
| 20260905211603 | 97 | 217 | 11.0 | 14.0 | 0.00 | 0.00 | 0.00 | 6 | 1014.1 |
| 20260905211033 | 97 | 178 | 7.0 | 14.0 | 0.00 | 0.00 | 0.00 | 6 | 1014.1 |
| 20260905210603 | 97 | 173 | 7.0 | 18.0 | 0.00 | 0.00 | 0.00 | 6 | 1014.1 |
| 20260905205103 | 96 | 213 | 3.0 | 16.0 | 0.00 | 0.00 | 0.00 | 8 | 1014.3 |
| 20260905204533 | 96 | 178 | 8.0 | 17.0 | 0.00 | 0.00 | 0.00 | 7 | 1014.4 |
| 20260905203603 | 96 | 222 | 15.0 | 19.0 | 0.00 | 0.00 | 0.00 | 6 | 1014.5 |
| 20260905203033 | 96 | 184 | 19.0 | 19.0 | 0.00 | 0.00 | 0.00 | 6 | 1014.5 |
| 20260905202533 | 96 | 206 | 7.0 | 17.0 | 0.00 | 0.00 | 0.00 | 6 | 1014.6 |
| 20260905202103 | 96 | 164 | 13.0 | 20.0 | 0.00 | 0.00 | 0.00 | 6 | 1014.6 |
| 20260905201603 | 95 | 115 | 9.0 | 20.0 | 0.00 | 0.00 | 0.00 | 6 | 1014.2 |
| 20260905201103 | 95 | 186 | 4.0 | 17.0 | 0.00 | 0.00 | 0.00 | 7 | 1014.5 |
| 20260905200603 | 95 | 160 | 8.0 | 15.0 | 0.00 | 0.00 | 0.00 | 7 | 1014.6 |
| 20260905195533 | 95 | 169 | 7.0 | 14.0 | 0.00 | 0.00 | 0.00 | 7 | 1014.7 |
| 20260905194533 | 95 | 175 | 6.0 | 10.0 | 0.00 | 0.00 | 0.00 | 9 | 1014.8 |
| 20260905194033 | 94 | 193 | 7.0 | 13.0 | 0.00 | 0.00 | 0.00 | 9 | 1014.7 |
| 20260905193533 | 93 | 93 | 2.0 | 14.0 | 0.00 | 0.00 | 0.00 | 10 | 1014.8 |
| 20260905192603 | 92 | 96 | 7.0 | 16.0 | 0.00 | 0.00 | 0.00 | 11 | 1014.9 |
| 20260905192033 | 91 | 137 | 4.0 | 15.0 | 0.00 | 0.00 | 0.00 | 12 | 1014.8 |
| 20260905191603 | 91 | 123 | 5.0 | 15.0 | 0.00 | 0.00 | 0.00 | 12 | 1015.0 |
| 20260905191033 | 90 | 114 | 4.0 | 12.0 | 0.00 | 0.00 | 0.00 | 12 | 1015.2 |
| 20260905190603 | 92 | 84 | 9.0 | 10.0 | 0.00 | 0.00 | 0.00 | 12 | 1015.3 |
| 20260905185603 | 90 | 106 | 7.0 | 11.0 | 0.00 | 0.00 | 0.00 | 13 | 1015.4 |
| 20260905185103 | 90 | 120 | 4.0 | 14.0 | 0.00 | 0.00 | 0.00 | 14 | 1015.5 |
| 20260905184103 | 90 | 101 | 10.0 | 15.0 | 0.00 | 0.00 | 0.00 | 13 | 1015.5 |
| 20260905183603 | 90 | 122 | 3.0 | 15.0 | 0.00 | 0.00 | 0.00 | 14 | 1015.6 |
| 20260905183103 | 89 | 107 | 1.0 | 9.0 | 0.00 | 0.00 | 0.00 | 15 | 1015.5 |
| 20260905182032 | 89 | 126 | 4.0 | 11.0 | 0.00 | 0.00 | 0.00 | 15 | 1015.5 |
| 20260905181603 | 89 | 105 | 3.0 | 10.0 | 0.00 | 0.00 | 0.00 | 15 | 1015.5 |
| 20260905180603 | 88 | 144 | 2.0 | 12.0 | 0.00 | 0.00 | 0.00 | 15 | 1015.5 |
| 20260905180103 | 88 | 147 | 3.0 | 10.0 | 0.00 | 0.00 | 0.00 | 16 | 1015.5 |
| 20260905175532 | 87 | 175 | 4.0 | 9.0 | 0.00 | 0.00 | 0.00 | 17 | 1015.7 |
| 20260905175033 | 87 | 109 | 3.0 | 9.0 | 0.00 | 0.00 | 0.00 | 16 | 1015.6 |
| 20260905174532 | 87 | 84 | 6.0 | 9.0 | 0.00 | 0.00 | 0.00 | 16 | 1015.8 |